Terug naar catalogus

DELTA 1 DEB

ActiefSSO
NORAD 12538·DEBRIS·🇺🇸 United States

Gelanceerd Jul 29, 1976 vanaf Vandenberg Space Force Base

Loading…

Volgende Passages (komende 24 uur)

TLE

VersSource: Space-Track

Epoch: Sep 13, 2026, 04:53 UTC

1 12538U 76077DT  26256.20372580 -.00000009  00000-0  36959-3 0  9999
2 12538 102.7788 350.0640 0198374 116.5921 273.0274 12.05753909 43046

Volg DELTA 1 DEB in realtime met AllMySat

Download on the App Store